EHI
14 34 68 89 86 68 50 35 22 14 9 5 1 0 1 1 1 2 2 1 0 0 0 0 0 0 0 0 0 0 0 0 1 1 1 0 0 0 0 0 0 0 0
29 43 70 90 88 71 52 35 22 14 8 4 1 0 0 0 0 1 1 1 0 0 0 0 0 0 0 0 0 0 0 0 0 0 0 0 0 0 0 0 0 0 0
52 53 69 88 90 75 56 38 24 14 8 4 2 0 0 0 0 0 0 0 0 0 0 0 0 0 0 0 0 0 0 0 0 0 0 0 0 1 1 0 0 0 0
62 57 65 86 92 80 63 46 28 16 9 4 1 0 0 0 0 0 0 0 0 0 0 0 0 0 0 0 0 0 0 0 0 0 0 0 0 1 2 1 0 0 0
59 56 66 86 94 86 72 54 35 22 14 6 2 0 0 0 0 0 0 0 0 0 0 0 0 0 0 0 0 0 0 0 0 0 0 0 0 1 2 1 0 0 0
59 58 70 88 95 90 78 61 43 31 23 14 6 2 1 1 1 0 0 0 0 0 0 0 0 0 0 0 0 0 0 0 0 0 0 0 0 2 5 5 2 1 0
62 62 73 87 93 89 79 65 52 40 31 22 14 7 3 3 3 3 3 2 2 2 2 1 0 0 0 0 0 0 0 0 0 0 0 0 1 5 10 10 7 4 2
56 59 67 78 85 85 78 68 57 47 37 29 22 14 9 7 6 7 8 6 6 6 5 2 1 0 0 0 0 0 0 0 0 0 0 0 3 9 15 15 12 8 6
40 46 54 62 69 71 69 63 56 47 40 34 27 21 15 11 9 10 11 9 9 10 8 4 2 2 1 1 0 0 0 0 0 0 0 1 5 11 17 18 15 11 9
25 32 40 46 49 49 48 46 43 40 36 30 25 22 17 12 8 9 11 10 10 12 11 7 5 5 4 2 1 0 0 0 0 0 0 1 6 11 17 19 18 14 12
20 22 28 33 34 32 28 25 24 25 23 19 16 16 14 8 5 6 8 9 11 15 15 12 9 8 7 4 1 0 0 0 0 0 0 1 5 12 19 24 23 18 16
22 19 18 21 24 23 19 14 13 13 12 9 8 8 7 4 2 3 4 7 12 17 18 17 16 15 14 9 5 3 2 1 0 0 0 2 6 14 25 31 29 23 19
24 19 15 14 16 17 16 13 11 9 7 6 5 4 4 4 2 1 2 6 12 20 24 26 27 26 24 18 11 7 5 2 1 0 1 3 9 17 28 34 31 25 23
35 29 23 18 15 15 16 17 15 11 9 9 8 7 9 8 5 3 4 8 16 27 35 36 35 32 28 22 15 9 5 3 1 0 1 3 10 18 28 33 32 26 24
52 48 43 37 31 28 29 30 28 23 20 19 18 16 17 16 13 11 10 12 19 30 37 36 31 28 24 20 15 9 5 2 0 0 0 2 8 16 25 31 30 25 23
63 61 59 56 50 46 46 45 40 36 33 30 27 23 21 20 19 18 15 13 16 22 26 25 21 18 17 16 12 7 5 3 1 0 0 0 4 11 20 26 26 23 21
63 61 61 61 56 51 48 44 39 37 34 29 25 21 20 20 19 17 13 10 11 14 16 15 13 12 12 11 8 5 5 4 2 1 0 0 1 6 13 18 20 20 18
57 57 57 55 51 44 37 31 28 26 23 18 17 17 17 17 15 11 8 6 7 10 11 10 10 10 10 9 6 4 3 4 3 1 0 0 0 3 8 12 13 15 15
48 49 48 44 38 31 24 18 16 14 11 10 11 11 11 10 8 6 4 4 4 5 7 8 8 8 7 6 5 2 2 3 3 2 1 0 0 1 4 6 7 8 9
34 34 33 28 21 16 13 9 7 6 5 5 5 5 4 3 2 2 1 1 1 2 4 5 5 4 4 4 3 2 1 2 3 2 1 0 0 0 1 1 2 3 4
20 20 18 14 9 6 4 4 3 3 2 2 1 1 1 0 0 0 0 0 0 1 1 2 2 1 2 2 2 1 0 1 2 1 0 0 0 0 0 0 1 1 1
9 9 8 6 3 1 1 2 2 2 1 1 0 0 0 0 0 0 0 0 0 0 0 0 0 0 1 1 1 0 0 0 0 0 0 0 0 0 0 0 0 0 0
3 2 2 1 0 0 0 1 1 1 1 0 0 0 0 0 0 0 0 0 0 0 0 0 0 0 0 0 0 0 0 0 0 0 0 0 0 0 0 0 0 0 0
2 1 0 0 0 0 0 0 0 0 0 0 0 0 0 0 0 0 0 0 0 0 0 0 0 0 0 0 0 0 0 0 0 0 0 0 0 0 0 0 0 0 0
1 0 0 0 0 0 0 0 0 0 0 0 0 0 0 0 0 0 0 0 0 0 0 0 0 0 0 0 0 0 0 0 0 0 0 0 0 0 0 0 0 0 0
0 0 0 0 0 0 0 0 0 0 0 0 0 0 0 0 0 0 0 0 0 0 0 0 0 0 0 0 0 0 0 0 0 0 0 0 0 0 0 0 0 0 0
Wind_Speed
10 11 18 19 20 19 19 18 17 17 17 17 17 17 17 17 17 17 16 16 15 14 13 13 12 12 13 13 14 14 15 15 15 16 16 15 14 14 14 16 15 11 16
15 14 18 19 20 19 19 18 17 17 17 17 16 16 16 16 16 15 15 14 14 13 13 12 12 12 12 13 13 13 14 14 14 15 15 13 13 12 13 15 14 10 16
18 14 16 18 19 19 19 18 18 17 17 16 16 16 15 15 14 14 14 13 13 13 12 12 11 12 12 12 12 12 12 12 13 14 13 6 8 12 13 15 15 15 15
18 12 14 20 19 19 19 18 18 17 17 16 16 15 15 14 14 13 13 12 12 12 12 12 11 11 11 11 11 10 10 11 12 12 6 4 6 14 15 15 15 15 15
14 11 15 21 20 20 19 18 17 17 17 16 15 15 15 14 13 13 12 12 12 12 11 11 11 11 10 10 9 9 9 9 9 7 4 4 5 13 15 15 14 14 14
12 10 14 20 20 19 18 18 17 17 16 16 15 15 14 14 13 13 12 11 12 12 11 11 11 10 10 9 9 8 8 7 6 2 3 5 5 12 15 14 14 14 14
12 9 12 19 19 18 18 17 16 16 16 15 15 14 14 13 13 13 12 12 12 11 11 11 11 10 10 9 9 8 7 7 4 2 4 5 7 13 15 15 14 14 14
14 10 10 18 19 18 17 16 15 15 15 14 14 13 13 12 12 12 12 12 12 12 11 11 11 11 10 10 9 8 7 7 4 3 4 6 10 14 16 15 14 14 14
13 10 8 9 13 16 16 15 15 14 14 13 13 13 13 12 12 12 12 12 12 12 12 12 13 12 12 11 10 9 9 8 3 2 4 5 12 16 17 17 16 15 14
9 9 8 7 7 7 9 14 15 14 14 13 13 13 12 12 12 13 11 12 13 13 13 13 14 13 13 12 12 11 11 8 4 3 3 5 14 18 18 18 17 16 15
9 7 7 7 7 6 6 11 12 13 13 12 10 12 10 5 5 7 10 13 15 15 15 15 15 15 14 13 14 13 11 4 4 3 3 8 15 19 19 19 19 18 17
11 9 8 8 8 7 7 6 4 5 5 5 4 5 4 4 4 7 9 15 16 16 16 16 16 15 12 6 10 12 5 5 5 4 5 11 15 19 20 20 20 19 18
12 11 10 9 9 8 5 5 3 3 3 4 5 5 4 4 4 5 4 7 9 13 9 10 11 7 6 6 5 5 6 6 4 5 6 11 14 19 21 20 20 20 20
9 9 9 8 7 7 5 4 4 3 3 4 5 6 4 3 4 4 3 4 5 4 6 6 5 7 7 8 8 8 8 6 5 4 6 11 14 18 19 20 20 20 20
7 7 7 6 6 5 5 4 4 3 3 4 3 4 5 4 4 3 3 3 4 4 5 6 6 7 8 9 9 9 9 9 8 7 5 12 15 18 20 21 21 21 20
5 5 5 5 5 6 5 4 3 2 2 2 2 2 4 3 3 3 3 3 3 4 4 5 7 7 7 7 8 8 8 8 8 8 7 8 14 17 19 21 21 21 21
4 4 5 5 5 5 4 4 3 2 2 2 1 1 2 2 2 2 2 3 3 3 4 4 6 5 6 7 8 8 7 8 8 9 8 6 7 14 18 20 20 20 21
5 5 5 6 6 4 4 3 2 2 2 2 1 1 2 1 1 1 2 3 3 3 3 3 4 4 5 5 6 6 6 6 9 9 8 7 6 7 13 19 20 21 22
5 5 6 5 5 4 4 3 3 3 2 1 2 1 1 1 0 0 1 2 3 3 3 4 3 3 4 5 6 6 6 7 7 9 9 10 9 8 7 13 20 22 23
5 5 6 5 5 4 4 3 3 3 2 2 1 0 0 0 0 0 1 3 3 3 3 3 3 3 4 5 7 7 6 6 6 7 9 8 8 10 10 10 10 14 22
5 5 5 5 4 3 3 2 2 2 2 2 1 1 0 1 1 1 2 2 2 3 4 4 3 4 4 3 3 4 4 6 7 7 7 7 9 10 10 10 8 7 9
4 4 4 4 3 3 2 1 1 0 1 1 2 2 2 2 2 2 2 2 2 2 4 3 3 2 3 3 3 2 2 3 4 8 6 7 8 7 9 11 9 10 8
4 5 4 4 3 3 2 2 2 3 2 3 3 3 3 3 3 3 3 2 2 2 2 3 3 3 3 2 2 3 2 4 2 3 5 6 6 6 7 7 10 10 10
5 5 5 4 4 3 3 3 2 1 1 2 2 2 4 4 4 4 3 3 2 1 2 3 2 2 2 2 2 2 3 2 2 2 2 2 5 6 6 7 8 9 9
6 5 5 4 3 3 3 3 3 2 2 2 2 3 4 4 4 4 3 3 2 2 2 2 2 2 2 2 2 2 2 2 2 2 2 1 1 2 4 5 5 6 7
4 4 3 3 3 3 3 3 3 4 3 3 3 3 3 3 3 4 3 3 3 3 3 2 2 2 2 2 2 2 1 1 1 1 2 2 2 2 2 3 4 5 5
Wind_Direction
153 159 153 146 141 137 134 130 126 123 121 119 118 117 116 117 117 118 120 121 122 123 123 121 119 116 114 113 114 116 117 119 120 119 117 116 117 118 117 116 113 111 114
149 155 152 147 144 141 139 135 132 130 128 126 124 124 123 123 123 124 125 125 126 126 126 126 124 122 121 120 120 122 123 124 124 122 119 116 117 121 122 119 118 122 121
145 150 150 148 145 144 142 140 138 137 135 133 132 131 131 131 131 132 132 132 131 131 130 130 129 128 127 126 126 128 129 128 128 125 119 111 115 124 126 126 124 124 123
143 145 149 148 147 147 146 145 144 142 141 141 140 139 139 139 140 140 140 139 139 138 138 137 137 136 135 134 134 135 136 137 137 133 125 128 123 124 127 129 129 128 126
139 142 152 149 149 149 149 149 148 148 147 148 148 148 149 149 149 149 149 149 148 148 147 148 147 146 147 147 147 146 147 148 150 142 142 139 129 135 135 136 136 135 133
137 141 152 149 150 151 152 152 152 153 153 154 155 156 157 157 157 158 159 160 159 158 159 159 158 158 160 162 163 163 164 168 163 143 152 155 151 149 145 144 144 142 141
137 142 150 149 150 152 154 156 156 157 159 160 161 163 164 165 165 166 168 169 169 169 169 169 170 170 174 178 180 182 184 189 176 163 164 163 168 160 155 154 151 150 148
140 141 148 151 152 153 156 158 160 161 163 165 166 168 171 172 173 175 177 179 181 180 180 181 182 183 185 190 196 200 204 210 198 174 173 174 180 170 164 161 159 159 157
141 142 144 152 155 157 159 161 163 165 167 169 171 174 177 179 182 185 187 190 192 191 191 192 193 195 196 199 205 212 218 223 215 186 187 182 188 179 172 169 168 167 167
140 146 145 147 150 154 160 166 169 171 173 175 178 181 186 190 193 197 196 199 203 203 202 202 203 204 205 206 211 217 224 229 224 214 197 198 195 186 180 176 176 175 175
145 153 154 154 152 152 160 175 176 179 182 183 186 191 194 197 201 206 211 211 213 213 212 211 211 210 210 214 217 222 227 218 213 223 209 211 202 194 188 183 181 181 181
161 167 170 167 164 163 176 171 176 183 183 184 186 192 196 194 209 216 223 223 223 222 221 219 219 216 213 214 221 223 221 215 219 226 223 218 209 202 195 189 187 185 186
168 171 175 174 172 176 179 164 177 183 184 192 197 200 199 200 217 224 221 231 230 227 224 225 225 221 217 211 212 212 216 218 220 225 225 222 212 206 201 195 193 190 190
160 170 167 167 171 177 166 164 173 185 189 196 206 204 200 210 222 228 227 227 223 218 213 218 217 218 223 222 216 216 220 219 217 220 226 229 217 207 204 201 198 197 195
137 152 153 155 155 149 145 151 157 174 178 190 197 200 197 204 221 230 235 235 231 222 214 215 218 219 221 224 222 219 221 219 216 218 225 227 218 209 206 206 204 204 202
114 136 135 127 128 126 128 130 134 143 139 144 171 193 196 198 211 223 240 247 242 230 224 221 223 225 223 226 229 225 222 220 219 220 222 226 220 211 209 210 209 209 208
94 109 114 112 101 107 108 109 113 120 115 112 126 135 158 185 206 223 242 254 252 242 239 237 234 232 231 229 233 231 227 223 220 219 221 222 219 216 211 213 211 211 212
84 81 81 97 86 91 94 95 91 82 82 89 93 96 102 121 141 227 249 258 262 257 244 238 234 230 232 226 228 233 230 224 222 219 217 219 216 216 216 217 215 215 215
89 91 85 79 79 72 72 69 68 65 60 59 64 71 70 68 106 215 261 268 277 275 264 259 244 226 237 237 237 234 232 226 223 222 216 216 213 210 207 216 217 218 218
92 88 83 74 71 63 54 49 45 42 36 36 42 72 115 354 7 311 283 285 285 279 273 263 257 239 235 237 249 247 234 230 223 219 219 216 213 212 209 210 215 222 220
88 82 79 77 63 59 53 48 40 15 356 357 334 316 314 294 295 284 291 295 298 281 272 263 254 253 248 224 232 254 254 238 230 226 219 212 212 212 208 207 206 209 216
101 97 94 93 89 85 96 107 125 142 321 322 339 340 321 301 285 279 274 280 289 291 292 278 260 254 258 211 194 218 262 270 245 231 216 213 212 205 207 208 204 203 204
141 151 145 148 136 128 117 86 51 37 18 4 347 329 315 304 282 272 263 259 273 279 290 288 268 246 250 255 202 194 202 229 255 255 222 216 207 200 204 202 202 202 202
177 171 166 165 161 155 134 119 124 135 225 252 262 283 304 308 296 279 264 252 249 254 285 298 306 262 241 248 257 233 225 210 197 264 292 232 209 201 199 205 203 201 200
184 178 179 174 182 185 170 163 161 191 223 250 276 298 302 304 302 290 267 246 238 240 254 281 303 302 270 249 237 239 244 248 214 184 231 257 253 221 202 200 196 196 195
191 185 185 185 215 222 208 197 194 213 235 261 280 286 289 291 295 295 275 247 237 234 240 252 266 288 293 284 256 222 211 223 227 191 198 209 219 245 223 203 195 191 192